ECHOSTAR 7

导读

EchoStar 7(回声星7号)是由美国EchoStar公司运营、洛克希德·马丁公司制造的地球静止轨道通信卫星,于北京时间2002年2月21日从卡纳维拉尔角太空军基地发射升空。卫星发射质量约4172千克,设计寿命12年,原定点于西经119°,主要用于直播卫星电视服务。2014年退役后因燃料不足无法到达预定墓地轨道,运营方Dish因此被美国FCC处罚,成为太空碎片整治首例罚款案例。

基本信息
目录编号:
27378
目录名称:
ECHOSTAR 7
国际标识:
2002-006A
轨道中心:
EARTH
卫星名称:
ECHOSTAR 7
卫星全名:
--
卫星状态:
在轨 (已飞行8968 天)
发射日期:
2002-02-21 UTC
国别 :
美国 (US)
星等 :
--
该卫星已列入 空间交会检测服务 Space Conjunction Data Service (SCDS) ,当前飞行风险评估等级: 无高风险
轨道信息
数据来源 国际轨道数据
星历时间: 2026-09-11T15:18:12+0800
7小时前
查看轨道信息
半长轴: 42285.903km
偏心率: 0.0002174
轨道倾角: 4.230°
近地点辐角 113.588°
升交点赤经 76.290°
平近点角 119.726°
近地点: 35898.573km
远地点: 35916.959km
周期: 1442.292分钟
每日圈数: 0.998411
详细信息
使用方式:
暂无
2D轨道图
3D轨道图
轨道高度分析图
轨道倾角分析图
轨道综合分析图
查看轨道综合分析图
与全量物体交会距离演化趋势
与全量物体交会风险概率演化趋势